PAYLOAD B

Satellite information

Favourite Embed

Satellite Type and Status

PAYLOADIN ORBIT

Key statistics

Satellite PAYLOAD B at a glance.

Uptime

4484

Days in orbit

Revolutions

≈ 14.7

Per day

Orbit

SSO

Sun Synchronous Orbit

Inclination

98.1

Latest

Satellite identification and parameters

Extended collection of information and parameters for PAYLOAD B.

Object identification

Identified? True

Debris? False

Object name: PAYLOAD B

International designator: 2013-037B

Object number (NORAD): 39209

Object ID (CCSDS): 39209

Country: PEOPLES REPUBLIC OF CHINA (PRC)

Current information (Y/N): Y

RCS size: LARGE

Orbital parameters

Period: 97.698 minutes

Inclination: 98.0817 deg

SMA: 7026.702 km

Apoapsis: 651.919 km

Periapsis: 645.214 km

RAAN: 301.7922 deg

Eccentricy: 0.00047708

Argument of periapsis: 143.6241 deg

Mean anomaly: 216.5292 deg

Mean motion: 14.73925321 rev/day

Mean motion (dot): 0.00001887 rev/day2

B* drag term: 0.00029535871 1/REarth

Two-line elements (TLE)

Creation date: Oct. 27, 2025, 2:46 a.m.

Reference frame: TEME

Reference center: EARTH

Epoch: Oct. 26, 2025, 10:23 p.m. UTC

TLE line 0: 0 PAYLOAD B

TLE line 1: 1 39209U 13037B 25299.93314709 .00001887 00000-0 29536-3 0 9992

TLE line 2: 2 39209 98.0817 301.7922 0004771 143.6241 216.5292 14.73925321657981

Live tracking on map

Real-time ground track for satellite PAYLOAD B.

In-orbit conjunctions

There are no conjunctions computed for PAYLOAD B, at the moment. Check back to stay up to date, as we update our databases every day.

Go to all conjunctions

Associated space launch

PAYLOAD B was lifted into orbit during the mission ‘Long March 4C | Shijian 15, Shiyan 7 & ChuangXin 3’, on board a Long March 4C space rocket.

The launch took place on July 19, 2013, 11:37 p.m. from Launch Complex 9.

For more information about the launch, click the button.

Launch to space Long March 4C | Shijian 15, Shiyan 7 & ChuangXin 3
Long March 4C | Shijian 15, Shiyan 7 & ChuangXin 3

Agency: N/A

Status: Launch Successful

Launch date: July 19, 2013, 11:37 p.m. UTC

Rocket: Long March 4C

Launch pad: Launch Complex 9

Location: Taiyuan Satellite Launch Center, People's Republic of China

...

Latest news about this satellite

There are no fresh news available about this satellite. Check back as we update our databases every day.


Newsletter sign-up

Weekly statistics, charts and insights to help you stay on top of the space industry.